When you browse on this site, cookies collect data to enhance your experience and personalize the content and advertising you see.
Visit our Privacy Policy to learn more. By continuing to use the site, you agree to this use of cookies and data.
  • In Spain
  • List of Countries
  • For 7 days
  • Water Temperature
  • Weather Map
  • Weather Widgets
  • user-avatar
    Login

    Hourly Weather Parral

    Today, 19 January, Sunday

    Time Temperature Precipitation Wind Pressure Humidity
    00:00 +20°C° 0 mm 1 mps 741 mmHg 47%
    01:00 +19°C° 0 mm 1 mps 741 mmHg 50%
    02:00 +18°C° 0 mm 1 mps 741 mmHg 55%
    03:00 +16°C° 0 mm 1 mps 741 mmHg 60%
    04:00 +15°C° 0 mm 1 mps 741 mmHg 64%
    05:00 +18°C° 0 mm 1 mps 741 mmHg 58%
    06:00 +20°C° 0 mm 1 mps 742 mmHg 51%
    07:00 +22°C° 0 mm 1 mps 742 mmHg 45%
    08:00 +25°C° 0 mm 2 mps 742 mmHg 37%
    09:00 +29°C° 0 mm 2 mps 742 mmHg 30%
    10:00 +32°C° 0 mm 2 mps 743 mmHg 23%
    11:00 +36°C° 0 mm 2 mps 743 mmHg 19%
    12:00 +38°C° 0 mm 2 mps 743 mmHg 15%
    13:00 +41°C° 0 mm 2 mps 742 mmHg 11%
    14:00 +42°C° 0 mm 3 mps 743 mmHg 11%
    15:00 +42°C° 0 mm 3 mps 743 mmHg 10%
    16:00 +42°C° 0 mm 4 mps 743 mmHg 10%
    17:00 +36°C° 0 mm 3 mps 743 mmHg 18%
    18:00 +30°C° 0 mm 3 mps 743 mmHg 26%
    19:00 +25°C° 0 mm 2 mps 744 mmHg 34%
    20:00 +23°C° 0 mm 1 mps 744 mmHg 41%
    21:00 +20°C° 0 mm 1 mps 744 mmHg 49%
    22:00 +16°C° 0 mm 1 mps 744 mmHg 56%
    23:00 +16°C° 0 mm 1 mps 743 mmHg 59%

    Tomorrow, 20 January, Monday

    Time Temperature Precipitation Wind Pressure Humidity
    00:00 +15°C° 0 mm 1 mps 743 mmHg 61%
    01:00 +13°C° 0 mm 0 mps 743 mmHg 64%
    02:00 +12°C° 0 mm 0 mps 743 mmHg 66%
    03:00 +12°C° 0 mm 0 mps 743 mmHg 68%
    04:00 +11°C° 0 mm 0 mps 742 mmHg 71%
    05:00 +14°C° 0 mm 1 mps 743 mmHg 63%
    06:00 +16°C° 0 mm 1 mps 743 mmHg 55%
    07:00 +18°C° 0 mm 2 mps 743 mmHg 47%
    08:00 +23°C° 0 mm 2 mps 743 mmHg 39%
    09:00 +27°C° 0 mm 2 mps 743 mmHg 30%
    10:00 +30°C° 0 mm 2 mps 743 mmHg 22%
    11:00 +34°C° 0 mm 3 mps 743 mmHg 17%
    12:00 +37°C° 0 mm 3 mps 743 mmHg 13%
    13:00 +40°C° 0 mm 4 mps 743 mmHg 9%
    14:00 +41°C° 0 mm 4 mps 743 mmHg 8%
    15:00 +41°C° 0 mm 4 mps 743 mmHg 7%
    16:00 +42°C° 0 mm 4 mps 743 mmHg 6%
    17:00 +37°C° 0 mm 4 mps 743 mmHg 10%
    18:00 +33°C° 0 mm 3 mps 743 mmHg 15%
    19:00 +28°C° 0 mm 3 mps 744 mmHg 19%
    20:00 +25°C° 0 mm 2 mps 744 mmHg 26%
    21:00 +21°C° 0 mm 2 mps 744 mmHg 33%
    22:00 +19°C° 0 mm 1 mps 744 mmHg 40%
    23:00 +18°C° 0 mm 1 mps 744 mmHg 46%

    Day after tomorrow, 21 January, Tuesday

    Time Temperature Precipitation Wind Pressure Humidity
    00:00 +16°C° 0 mm 1 mps 743 mmHg 51%
    01:00 +15°C° 0 mm 2 mps 743 mmHg 57%
    02:00 +15°C° 0 mm 1 mps 743 mmHg 61%
    03:00 +14°C° 0 mm 1 mps 743 mmHg 64%
    04:00 +13°C° 0 mm 1 mps 743 mmHg 68%
    05:00 +15°C° 0 mm 2 mps 743 mmHg 61%
    06:00 +17°C° 0 mm 2 mps 743 mmHg 54%
    07:00 +19°C° 0 mm 2 mps 743 mmHg 47%
    08:00 +24°C° 0 mm 2 mps 743 mmHg 37%
    09:00 +28°C° 0 mm 3 mps 743 mmHg 27%
    10:00 +34°C° 0 mm 3 mps 743 mmHg 17%
    11:00 +36°C° 0 mm 3 mps 743 mmHg 14%
    12:00 +39°C° 0 mm 3 mps 742 mmHg 10%
    13:00 +43°C° 0 mm 4 mps 742 mmHg 7%
    14:00 +43°C° 0 mm 4 mps 742 mmHg 7%
    15:00 +43°C° 0 mm 4 mps 742 mmHg 6%
    16:00 +45°C° 0 mm 5 mps 742 mmHg 6%
    17:00 +40°C° 0 mm 4 mps 742 mmHg 10%
    18:00 +36°C° 0 mm 4 mps 742 mmHg 13%
    19:00 +32°C° 0 mm 4 mps 743 mmHg 17%
    20:00 +28°C° 0 mm 3 mps 743 mmHg 24%
    21:00 +25°C° 0 mm 3 mps 743 mmHg 30%
    22:00 +21°C° 0 mm 2 mps 743 mmHg 37%
    23:00 +20°C° 0 mm 2 mps 743 mmHg 42%

    22 January, Wednesday

    Time Temperature Precipitation Wind Pressure Humidity
    00:00 +19°C° 0 mm 2 mps 742 mmHg 47%
    01:00 +17°C° 0 mm 2 mps 742 mmHg 52%
    02:00 +16°C° 0 mm 2 mps 742 mmHg 56%
    03:00 +15°C° 0 mm 1 mps 742 mmHg 61%
    04:00 +14°C° 0 mm 1 mps 742 mmHg 66%
    05:00 +16°C° 0 mm 1 mps 742 mmHg 60%
    06:00 +19°C° 0 mm 1 mps 742 mmHg 55%
    07:00 +20°C° 0 mm 1 mps 742 mmHg 50%
    08:00 +24°C° 0 mm 1 mps 743 mmHg 41%
    09:00 +28°C° 0 mm 1 mps 743 mmHg 32%
    10:00 +32°C° 0 mm 1 mps 743 mmHg 24%
    11:00 +35°C° 0 mm 2 mps 742 mmHg 20%
    12:00 +38°C° 0 mm 2 mps 742 mmHg 16%
    13:00 +41°C° 0 mm 2 mps 742 mmHg 12%
    14:00 +41°C° 0 mm 4 mps 742 mmHg 13%
    15:00 +41°C° 0 mm 5 mps 742 mmHg 14%
    16:00 +41°C° 0 mm 6 mps 742 mmHg 16%
    17:00 +35°C° 0 mm 5 mps 742 mmHg 25%
    18:00 +29°C° 0 mm 3 mps 742 mmHg 34%
    19:00 +24°C° 0 mm 2 mps 742 mmHg 44%
    20:00 +22°C° 0 mm 1 mps 743 mmHg 55%
    21:00 +19°C° 0 mm 1 mps 743 mmHg 66%
    22:00 +14°C° 0 mm 0 mps 743 mmHg 77%
    23:00 +14°C° 0 mm 0 mps 743 mmHg 79%

    23 January, Thursday

    Time Temperature Precipitation Wind Pressure Humidity
    00:00 +13°C° 0 mm 0 mps 743 mmHg 80%
    01:00 +13°C° 0 mm 0 mps 742 mmHg 82%
    02:00 +12°C° 0 mm 0 mps 743 mmHg 84%
    03:00 +13°C° 0 mm 1 mps 743 mmHg 85%
    04:00 +13°C° 0 mm 1 mps 744 mmHg 87%
    05:00 +15°C° 0 mm 1 mps 744 mmHg 78%
    06:00 +18°C° 0 mm 1 mps 744 mmHg 70%
    07:00 +20°C° 0 mm 1 mps 745 mmHg 62%
    08:00 +23°C° 0 mm 1 mps 745 mmHg 52%
    09:00 +27°C° 0 mm 1 mps 745 mmHg 41%
    10:00 +30°C° 0 mm 2 mps 746 mmHg 31%
    11:00 +32°C° 0 mm 2 mps 746 mmHg 26%
    12:00 +36°C° 0 mm 2 mps 746 mmHg 20%
    13:00 +38°C° 0 mm 2 mps 745 mmHg 15%
    14:00 +38°C° 0 mm 3 mps 745 mmHg 15%
    15:00 +37°C° 0 mm 5 mps 745 mmHg 16%
    16:00 +38°C° 0 mm 6 mps 745 mmHg 17%
    17:00 +33°C° 0 mm 5 mps 745 mmHg 25%
    18:00 +28°C° 0 mm 3 mps 745 mmHg 33%
    19:00 +24°C° 0 mm 2 mps 745 mmHg 41%
    20:00 +21°C° 0 mm 2 mps 746 mmHg 50%
    21:00 +19°C° 0 mm 1 mps 746 mmHg 60%
    22:00 +16°C° 0 mm 1 mps 746 mmHg 70%
    23:00 +15°C° 0 mm 1 mps 745 mmHg 70%

    24 January, Friday

    Time Temperature Precipitation Wind Pressure Humidity
    00:00 +14°C° 0 mm 1 mps 745 mmHg 71%
    01:00 +14°C° 0 mm 1 mps 745 mmHg 72%
    02:00 +13°C° 0 mm 1 mps 745 mmHg 75%
    03:00 +12°C° 0 mm 1 mps 745 mmHg 78%
    04:00 +11°C° 0 mm 1 mps 745 mmHg 81%
    05:00 +13°C° 0 mm 1 mps 745 mmHg 75%
    06:00 +15°C° 0 mm 1 mps 745 mmHg 68%
    07:00 +18°C° 0 mm 1 mps 746 mmHg 61%
    08:00 +21°C° 0 mm 2 mps 746 mmHg 49%
    09:00 +26°C° 0 mm 2 mps 745 mmHg 38%
    10:00 +29°C° 0 mm 2 mps 745 mmHg 26%
    11:00 +33°C° 0 mm 3 mps 745 mmHg 22%
    12:00 +35°C° 0 mm 3 mps 745 mmHg 17%
    13:00 +38°C° 0 mm 4 mps 745 mmHg 13%
    14:00 +39°C° 0 mm 5 mps 745 mmHg 13%
    15:00 +39°C° 0 mm 5 mps 745 mmHg 13%
    16:00 +39°C° 0 mm 6 mps 745 mmHg 13%
    17:00 +35°C° 0 mm 5 mps 745 mmHg 19%
    18:00 +32°C° 0 mm 5 mps 745 mmHg 24%
    19:00 +28°C° 0 mm 4 mps 746 mmHg 29%
    20:00 +26°C° 0 mm 4 mps 746 mmHg 34%
    21:00 +23°C° 0 mm 4 mps 746 mmHg 39%
    22:00 +21°C° 0 mm 4 mps 746 mmHg 43%
    23:00 +20°C° 0 mm 4 mps 746 mmHg 46%
    Show more